Time,TemperatureF,DewpointF,PressureIn,WindDirection,WindDirectionDegrees,WindSpeedMPH,WindSpeedGustMPH,Humidity,HourlyPrecipIn,Conditions,Clouds,dailyrainin,SoftwareType,DateUTC
2013-11-22 00:22:00,47.0,44.0,30.18,SW,225,0.0,0.0,89,0.03,,,0.41,,2013-11-22 05:22:00,
2013-11-22 00:32:00,47.0,44.0,30.18,SW,225,0.0,0.0,89,0.03,,,0.41,,2013-11-22 05:32:00,
2013-11-22 00:53:00,47.0,44.0,30.20,SW,225,0.0,0.0,89,0.00,,,0.41,,2013-11-22 05:53:00,
2013-11-22 01:22:00,47.0,44.0,30.18,SW,225,0.0,0.0,89,0.02,,,0.43,,2013-11-22 06:22:00,
2013-11-22 01:52:00,48.0,45.0,30.18,SW,225,0.0,0.0,89,0.02,,,0.43,,2013-11-22 06:52:00,
2013-11-22 02:21:00,48.0,45.0,30.18,SW,225,0.0,0.0,89,0.00,,,0.43,,2013-11-22 07:21:00,
2013-11-22 02:32:00,48.0,45.0,30.18,SW,225,0.0,0.0,89,0.00,,,0.43,,2013-11-22 07:32:00,
2013-11-22 02:42:00,48.0,45.0,30.18,SW,225,0.0,0.0,89,0.00,,,0.43,,2013-11-22 07:42:00,
2013-11-22 02:52:00,48.0,45.0,30.18,West,270,0.0,0.0,89,0.00,,,0.43,,2013-11-22 07:52:00,
2013-11-22 03:21:00,48.0,45.0,30.18,West,270,0.0,0.0,89,0.00,,,0.43,,2013-11-22 08:21:00,
2013-11-22 03:52:00,47.0,44.0,30.18,West,270,0.0,0.0,89,0.00,,,0.43,,2013-11-22 08:52:00,
2013-11-22 04:21:00,47.0,44.0,30.18,West,270,0.0,0.0,89,0.00,,,0.43,,2013-11-22 09:21:00,
2013-11-22 04:53:00,47.0,44.0,30.19,West,270,0.0,0.0,89,0.00,,,0.43,,2013-11-22 09:53:00,
2013-11-22 05:23:00,47.0,44.0,30.18,West,270,0.0,0.0,89,0.00,,,0.43,,2013-11-22 10:23:00,
2013-11-22 05:53:00,46.0,43.0,30.19,West,270,0.0,0.0,89,0.00,,,0.43,,2013-11-22 10:53:00,
2013-11-22 06:22:00,46.0,43.0,30.19,West,270,0.0,0.0,89,0.00,,,0.43,,2013-11-22 11:22:00,
2013-11-22 06:52:00,46.0,43.0,30.19,West,270,0.0,0.0,89,0.04,,,0.47,,2013-11-22 11:52:00,
2013-11-22 07:22:00,46.0,43.0,30.20,West,270,0.0,0.0,89,0.04,,,0.45,,2013-11-22 12:22:00,
2013-11-22 07:52:00,46.0,43.0,30.20,West,270,0.0,0.0,89,0.00,,,0.45,,2013-11-22 12:52:00,
2013-11-22 08:22:00,45.0,42.0,30.22,NW,315,0.0,0.0,89,0.02,,,0.47,,2013-11-22 13:22:00,
2013-11-22 08:52:00,44.0,41.0,30.24,WNW,292,0.0,0.0,89,0.02,,,0.47,,2013-11-22 13:52:00,
2013-11-22 09:22:00,43.0,40.0,30.25,WNW,292,0.0,0.0,89,0.02,,,0.49,,2013-11-22 14:22:00,
2013-11-22 09:42:00,43.0,40.0,30.26,North,0,0.0,0.0,89,0.02,,,0.49,,2013-11-22 14:42:00,
2013-11-22 09:52:00,43.0,40.0,30.26,North,0,0.0,0.0,89,0.02,,,0.49,,2013-11-22 14:52:00,
2013-11-22 10:22:00,42.0,39.0,30.27,North,0,0.0,0.0,89,0.00,,,0.49,,2013-11-22 15:22:00,
2013-11-22 10:54:00,42.0,39.0,30.29,North,0,0.0,0.0,89,0.00,,,0.49,,2013-11-22 15:54:00,
2013-11-22 11:23:00,42.0,39.0,30.29,West,270,0.0,0.0,89,0.00,,,0.49,,2013-11-22 16:23:00,
2013-11-22 11:52:00,40.0,37.0,30.30,NNW,337,0.0,0.0,89,0.00,,,0.49,,2013-11-22 16:52:00,
2013-11-22 12:22:00,38.0,35.0,30.31,NW,315,0.0,0.0,89,0.00,,,0.49,,2013-11-22 17:22:00,
2013-11-22 12:52:00,36.0,33.0,30.31,North,0,1.0,4.0,89,0.00,,,0.49,,2013-11-22 17:52:00,
2013-11-22 13:22:00,35.0,32.0,30.31,NNE,22,0.0,0.0,89,0.00,,,0.47,,2013-11-22 18:22:00,
2013-11-22 15:22:00,35.0,32.0,30.31,NNE,22,0.0,0.0,88,0.00,,,0.39,,2013-11-22 20:22:00,
2013-11-22 15:42:00,35.0,32.0,30.31,North,0,0.0,0.0,88,0.00,,,0.39,,2013-11-22 20:42:00,
2013-11-22 15:52:00,35.0,32.0,30.32,NNW,337,0.0,0.0,88,0.00,,,0.37,,2013-11-22 20:52:00,
2013-11-22 16:22:00,36.0,33.0,30.33,NW,315,0.0,0.0,87,0.00,,,0.35,,2013-11-22 21:22:00,
2013-11-22 16:53:00,38.0,34.0,30.35,NNW,337,0.0,0.0,87,0.00,,,0.33,,2013-11-22 21:53:00,
2013-11-22 17:23:00,39.0,35.0,30.37,NNW,337,0.0,0.0,87,0.00,,,0.29,,2013-11-22 22:23:00,
2013-11-22 17:53:00,38.0,34.0,30.38,WNW,292,0.0,0.0,87,0.00,,,0.25,,2013-11-22 22:53:00,
2013-11-22 18:22:00,37.0,33.0,30.40,North,0,0.0,0.0,86,0.00,,,0.21,,2013-11-22 23:22:00,
2013-11-22 18:53:00,36.0,32.0,30.41,West,270,0.0,0.0,86,0.00,,,0.21,,2013-11-22 23:53:00,
2013-11-22 19:21:00,36.0,32.0,30.41,WNW,292,0.0,0.0,86,0.00,,,0.19,,2013-11-23 00:21:00,
2013-11-22 19:52:00,35.0,31.0,30.42,North,0,0.0,0.0,86,0.00,,,0.17,,2013-11-23 00:52:00,
2013-11-22 20:22:00,35.0,31.0,30.42,North,0,0.0,0.0,86,0.00,,,0.17,,2013-11-23 01:22:00,
2013-11-22 20:52:00,34.0,30.0,30.42,NW,315,0.0,0.0,86,0.00,,,0.17,,2013-11-23 01:52:00,
2013-11-22 21:22:00,34.0,30.0,30.42,NW,315,0.0,0.0,86,0.00,,,0.17,,2013-11-23 02:22:00,
2013-11-22 21:52:00,32.0,28.0,30.42,NW,315,0.0,0.0,86,0.00,,,0.17,,2013-11-23 02:52:00,
2013-11-22 22:22:00,32.0,28.0,30.42,NW,315,0.0,0.0,86,0.00,,,0.15,,2013-11-23 03:22:00,
2013-11-22 22:53:00,31.0,27.0,30.43,NW,315,0.0,0.0,86,0.00,,,0.15,,2013-11-23 03:53:00,
2013-11-22 23:23:00,30.0,26.0,30.43,NW,315,0.0,0.0,86,0.00,,,0.13,,2013-11-23 04:23:00,
2013-11-22 23:53:00,30.0,26.0,30.43,NW,315,0.0,0.0,86,0.00,,,0.10,,2013-11-23 04:53:00,